DW8004 Weather Reports


time (UTC)temp
C
wind
direction
speed
KPH
gust
KPH
rain 1hr
cm
rain 24hr
cm
rain mn
cm
humidity
%
barometer
mb
20260503033002 0 221 0.0 0.0 0.00 0.15 0.15 82 1011.7
20260503031541 0 221 0.0 0.0 0.00 0.15 0.15 81 1011.5
20260503030023 1 221 0.0 0.0 0.00 0.15 0.15 79 1011.5
20260503024509 1 221 0.0 0.0 0.00 0.15 0.15 77 1011.5
20260503023012 2 221 0.0 0.0 0.00 0.15 0.15 76 1011.5
20260503021603 2 221 0.0 0.0 0.00 0.15 0.15 75 1011.5
20260503020035 2 221 0.0 0.0 0.00 0.15 0.15 73 1011.7
20260503014508 2 221 0.0 0.0 0.00 0.15 0.15 73 1011.6
20260503013118 3 221 0.0 0.0 0.00 0.15 0.15 71 1011.5
20260503011539 3 221 0.0 0.0 0.00 0.15 0.15 69 1011.5
20260503010027 3 221 0.0 0.0 0.00 0.15 0.15 67 1011.5
20260503004606 4 221 0.0 0.0 0.00 0.15 0.15 66 1011.2
20260503003045 5 221 0.0 0.0 0.00 0.15 0.15 61 1011.3
20260503001517 5 236 0.0 0.0 0.00 0.15 0.15 60 1011.2
20260503000029 5 234 0.0 0.0 0.00 0.15 0.15 55 1010.9
20260502234548 6 295 0.0 0.0 0.00 0.15 0.15 54 1010.9
20260502233022 6 256 0.0 0.0 0.00 0.15 0.15 55 1010.6
20260502231502 6 259 0.0 0.0 0.00 0.15 0.15 53 1010.5
20260502230103 7 215 0.0 0.0 0.00 0.15 0.15 52 1010.3
20260502224604 7 273 0.0 0.0 0.00 0.15 0.15 54 1010.0
20260502223032 8 217 0.0 0.0 0.00 0.15 0.15 51 1009.9
20260502221555 8 236 0.0 0.0 0.00 0.15 0.15 52 1009.9
20260502220056 8 234 0.0 0.0 0.00 0.15 0.15 52 1009.8
20260502214527 8 252 0.0 0.0 0.00 0.15 0.15 50 1009.8
20260502213007 8 339 0.0 0.0 0.00 0.15 0.15 49 1009.7
20260502211503 8 313 0.0 0.0 0.00 0.15 0.15 52 1009.3
20260502210010 8 248 0.0 0.0 0.00 0.15 0.15 55 1009.3
20260502204502 8 307 0.0 0.0 0.00 0.15 0.15 56 1009.3
20260502203117 9 267 0.0 0.0 0.00 0.15 0.15 57 1009.3
20260502201555 8 217 0.0 0.0 0.00 0.15 0.15 58 1009.3
20260502200052 8 232 0.0 0.0 0.00 0.15 0.15 61 1009.4
20260502194534 8 328 0.0 0.0 0.00 0.15 0.15 61 1009.5
20260502193035 8 230 0.0 0.0 0.00 0.15 0.15 61 1009.7
20260502191506 8 265 0.0 0.0 0.00 0.15 0.15 66 1009.9
20260502190024 8 257 0.0 0.0 0.00 0.15 0.15 68 1010.1
20260502184559 8 308 0.0 0.0 0.00 0.15 0.15 68 1010.1
20260502183032 8 252 0.0 0.0 0.00 0.15 0.15 68 1010.1
20260502181509 8 338 0.0 0.0 0.00 0.15 0.15 71 1010.3
20260502163037 7 298 0.0 0.0 0.00 0.15 0.15 79 1010.8
20260502161509 7 265 0.0 0.0 0.00 0.15 0.15 80 1010.7
20260502160104 7 301 0.0 0.0 0.00 0.15 0.15 81 1010.8
20260502151604 6 312 0.0 0.0 0.00 0.15 0.15 84 1011.0
20260502123118 6 238 0.0 0.0 0.00 0.15 0.15 94 1010.8
20260502121552 6 242 0.0 0.0 0.00 0.15 0.15 94 1010.8
20260502120108 6 242 0.0 0.0 0.00 0.15 0.15 94 1010.7
20260502114559 5 242 0.0 0.0 0.00 0.15 0.15 95 1010.6
20260502113041 5 242 0.0 0.0 0.00 0.15 0.15 95 1010.7
20260502111546 5 242 0.0 0.0 0.00 0.15 0.15 95 1010.8
20260502110016 5 242 0.0 0.0 0.00 0.15 0.15 95 1010.5
20260502104514 5 242 0.0 0.0 0.00 0.15 0.15 95 1010.5
20260502103101 5 242 0.0 0.0 0.00 0.15 0.15 95 1010.7
20260502101605 5 242 0.0 0.0 0.00 0.15 0.15 95 1010.5
20260502100108 5 242 0.0 0.0 0.00 0.15 0.15 94 1010.3
20260502071512 5 242 0.0 0.0 0.03 0.08 0.08 94 1010.8
20260502070113 5 243 0.0 0.0 0.00 0.05 0.05 95 1010.7
20260502064549 5 242 0.0 0.0 0.00 0.05 0.05 94 1010.9
20260502063017 5 243 0.0 0.0 0.00 0.05 0.05 94 1011.0
20260502061524 5 242 0.0 0.0 0.03 0.05 0.05 93 1011.0
20260502060105 5 242 0.0 0.0 0.03 0.05 0.05 93 1011.3
20260502054608 5 242 0.0 0.0 0.05 0.05 0.05 92 1011.4
20260502053043 5 242 0.0 0.0 0.05 0.05 0.05 91 1011.5
20260502051505 5 242 0.0 0.0 0.03 0.03 0.03 89 1012.0
20260502044515 6 243 0.0 0.0 0.00 0.00 0.00 80 1011.5
20260502043013 6 221 0.0 0.0 0.00 0.00 0.00 77 1011.4
20260502041557 6 203 0.0 0.0 0.00 0.00 0.00 78 1011.3
20260502040047 6 192 0.0 0.0 0.00 0.00 0.00 77 1011.4
20260502034508 6 136 0.0 0.0 0.00 0.00 0.00 78 1011.2